Location: Geography Hall
(41.1195°N, 80.5706°W)
Time: 00:25:27
(UTC+00:00)

COSMO-SKYMED 1 - Pass Details

Date: 29 October 2020
Orbit: 621 x 623 km, 97.9° (Epoch: 03 December)

Event Time Altitude Azimuth Distance (km) Brightness Sun altitude
Rises 23:31:31 0° 11° (NNE) 2,912 5.8 -13.8°
Reaches altitude 10° 23:33:43 10° 11° (NNE) 2,001 5.0 -14.2°
Maximum altitude 23:38:05 85° 287° (WNW) 630 2.6 -15.1°
Drops below altitude 10° 23:42:24 10° 196° (SSW) 1,984 5.4 -15.9°
Sets 23:44:35 0° 196° (SSW) 2,885 6.3 -16.3°
